Orbital Elements at Epoch 2459000.5 (2020-May-31.0) TDB
Reference: JPL 15 (heliocentric ecliptic J2000)
Element | Value | Uncertainty (1-sigma) | Units |
e | .1476771784110734 | 3.424e-08 | |
a | 2.436176725839435 | 1.0573e-08 | au |
q | 2.076409020856741 | 8.1947e-08 | au |
i | 3.784767318061628 | 4.6858e-06 | deg |
node | 25.34062424303518 | 6.8122e-05 | deg |
peri | 70.06613831403392 | 7.1829e-05 | deg |
M | 176.6974141608085 | 2.1988e-05 | deg |
tp | 2458318.806261706247 (2018-Jul-19.30626171) | 8.3052e-05 | TDB |
period | 1388.870046295124 3.80 | 9.0416e-06 2.475e-08 | d yr |
n | .2592035165279262 | 1.6874e-09 | deg/d |
Q | 2.79594443082213 | 1.2134e-08 | au |
|
| | Orbit Determination Parameters
Additional Information
|